SKW3841 KLAX-KPHX

Flight info

Callsign SKW3841
Flight time 1h 4m
Altitude 37000
Route DOTSS2 CNERY BLH HYDRR1
Aircraft E170/M-SDE3GILORVW/S

Departure

Time 2026-04-20 03:23
Airport Los Angeles International Airport (KLAX)

Arrival

Time 2026-04-20 04:27
Airport Phoenix Sky Harbor International Airport (KPHX)
Time Latitude Longitude Altitude Speed Heading
2026-04-20 02:58 33.94599 -118.40305 114 ft 0 kts 255°
2026-04-20 03:07 33.94599 -118.40306 114 ft 0 kts 255°
2026-04-20 03:08 33.94602 -118.40292 114 ft 2 kts 257°
2026-04-20 03:08 33.94605 -118.40274 114 ft 2 kts 260°
2026-04-20 03:08 33.94608 -118.40256 114 ft 2 kts 261°
2026-04-20 03:08 33.94609 -118.40244 114 ft 0 kts 261°
2026-04-20 03:10 33.94611 -118.40255 114 ft 1 kts 294°
2026-04-20 03:10 33.94632 -118.40276 114 ft 5 kts 346°
2026-04-20 03:10 33.94678 -118.40278 114 ft 7 kts 13°
2026-04-20 03:10 33.94731 -118.40265 114 ft 8 kts 360°
2026-04-20 03:11 33.94775 -118.40273 114 ft 4 kts 350°
2026-04-20 03:11 33.94812 -118.40276 114 ft 7 kts 13°
2026-04-20 03:11 33.94837 -118.40167 114 ft 18 kts 85°
2026-04-20 03:11 33.94855 -118.40041 112 ft 8 kts 50°
2026-04-20 03:12 33.94879 -118.40009 111 ft 4 kts 24°
2026-04-20 03:12 33.94917 -118.39995 111 ft 6 kts 40°
2026-04-20 03:12 33.94922 -118.39986 111 ft 0 kts 62°
2026-04-20 03:16 33.94931 -118.39967 111 ft 6 kts 62°
2026-04-20 03:16 33.94950 -118.39934 111 ft 0 kts 35°
2026-04-20 03:20 33.94973 -118.39923 110 ft 7 kts 11°
2026-04-20 03:20 33.95029 -118.39934 110 ft 8 kts 320°
2026-04-20 03:20 33.95038 -118.39975 111 ft 0 kts 260°
2026-04-20 03:22 33.95038 -118.39976 111 ft 1 kts 260°
2026-04-20 03:22 33.95016 -118.40170 114 ft 57 kts 263°
2026-04-20 03:22 33.94942 -118.40926 121 ft 119 kts 264°
2026-04-20 03:22 33.94829 -118.42078 256 ft 149 kts 263°
2026-04-20 03:23 33.94696 -118.43410 719 ft 162 kts 262°
2026-04-20 03:23 33.94511 -118.44789 1220 ft 173 kts 262°
2026-04-20 03:23 33.94379 -118.46302 1586 ft 192 kts 265°
2026-04-20 03:23 33.94321 -118.48022 1912 ft 216 kts 268°
2026-04-20 03:24 33.94265 -118.49885 2579 ft 224 kts 268°
2026-04-20 03:24 33.94152 -118.51715 3417 ft 222 kts 264°
2026-04-20 03:24 33.94001 -118.53685 3755 ft 244 kts 265°
2026-04-20 03:24 33.93838 -118.55808 4117 ft 262 kts 265°
2026-04-20 03:25 33.93668 -118.58034 4651 ft 272 kts 265°
2026-04-20 03:25 33.93491 -118.60341 5291 ft 277 kts 264°
2026-04-20 03:25 33.92821 -118.62492 5943 ft 279 kts 231°
2026-04-20 03:25 33.91252 -118.63859 6610 ft 281 kts 198°
2026-04-20 03:26 33.89383 -118.64065 7217 ft 283 kts 178°
2026-04-20 03:26 33.87416 -118.63953 7846 ft 284 kts 178°
2026-04-20 03:26 33.85409 -118.63820 8432 ft 287 kts 177°
2026-04-20 03:26 33.83491 -118.63186 8944 ft 291 kts 150°
2026-04-20 03:27 33.81791 -118.61867 9499 ft 293 kts 147°
2026-04-20 03:27 33.80062 -118.60476 10044 ft 295 kts 147°
2026-04-20 03:27 33.78349 -118.59086 10529 ft 299 kts 147°
2026-04-20 03:27 33.76570 -118.57645 10885 ft 307 kts 147°
2026-04-20 03:28 33.74754 -118.56169 11177 ft 317 kts 147°
2026-04-20 03:28 33.72861 -118.54630 11489 ft 326 kts 147°
2026-04-20 03:28 33.69439 -118.50867 12093 ft 344 kts 117°
2026-04-20 03:29 33.68573 -118.48161 12462 ft 349 kts 111°
2026-04-20 03:29 33.67755 -118.45416 12891 ft 351 kts 111°
2026-04-20 03:29 33.66927 -118.42628 13335 ft 352 kts 111°
2026-04-20 03:29 33.66106 -118.39857 13760 ft 354 kts 112°
2026-04-20 03:30 33.65270 -118.37064 14173 ft 355 kts 112°
2026-04-20 03:30 33.64557 -118.34215 14538 ft 361 kts 99°
2026-04-20 03:30 33.64468 -118.31147 14932 ft 365 kts 92°
2026-04-20 03:30 33.64464 -118.28091 15322 ft 367 kts 92°
2026-04-20 03:31 33.64464 -118.25011 15707 ft 369 kts 92°
2026-04-20 03:31 33.64465 -118.21932 16083 ft 371 kts 92°
2026-04-20 03:31 33.64465 -118.18807 16456 ft 373 kts 92°
2026-04-20 03:31 33.64465 -118.15650 16826 ft 376 kts 92°
2026-04-20 03:32 33.64464 -118.12369 17204 ft 378 kts 92°
2026-04-20 03:32 33.64463 -118.09171 17565 ft 380 kts 92°
2026-04-20 03:32 33.64460 -118.05972 17919 ft 382 kts 92°
2026-04-20 03:32 33.64457 -118.02679 18279 ft 384 kts 92°
2026-04-20 03:33 33.64453 -117.99411 18629 ft 387 kts 92°
2026-04-20 03:33 33.64447 -117.96101 18970 ft 389 kts 92°
2026-04-20 03:33 33.64441 -117.92783 19303 ft 391 kts 92°
2026-04-20 03:33 33.64435 -117.89509 19624 ft 393 kts 92°
2026-04-20 03:34 33.64427 -117.86186 19945 ft 395 kts 92°
2026-04-20 03:34 33.64418 -117.82880 20251 ft 397 kts 92°
2026-04-20 03:34 33.64312 -117.79571 20526 ft 397 kts 102°
2026-04-20 03:34 33.63624 -117.76392 20805 ft 398 kts 108°
2026-04-20 03:35 33.62852 -117.73216 21086 ft 400 kts 108°
2026-04-20 03:35 33.62060 -117.69985 21362 ft 402 kts 108°
2026-04-20 03:35 33.61269 -117.66772 21631 ft 405 kts 108°
2026-04-20 03:35 33.60469 -117.63527 21898 ft 407 kts 108°
2026-04-20 03:36 33.59667 -117.60275 22160 ft 409 kts 108°
2026-04-20 03:36 33.58865 -117.57032 22413 ft 411 kts 108°
2026-04-20 03:36 33.58047 -117.53726 22666 ft 413 kts 108°
2026-04-20 03:36 33.57235 -117.50447 22912 ft 415 kts 108°
2026-04-20 03:37 33.56411 -117.47125 23157 ft 417 kts 108°
2026-04-20 03:37 33.55587 -117.43810 23393 ft 419 kts 108°
2026-04-20 03:37 33.54752 -117.40453 23625 ft 421 kts 108°
2026-04-20 03:37 33.53983 -117.37364 23835 ft 423 kts 108°
2026-04-20 03:38 33.53141 -117.33986 24060 ft 425 kts 108°
2026-04-20 03:38 33.52292 -117.30586 24289 ft 427 kts 108°
2026-04-20 03:38 33.51440 -117.27177 24521 ft 428 kts 108°
2026-04-20 03:38 33.50637 -117.23747 24740 ft 431 kts 101°
2026-04-20 03:39 33.50444 -117.20170 24952 ft 434 kts 92°
2026-04-20 03:39 33.50395 -117.16574 25182 ft 435 kts 92°
2026-04-20 03:39 33.50347 -117.12921 25414 ft 436 kts 91°
2026-04-20 03:39 33.50298 -117.09293 25639 ft 438 kts 91°
2026-04-20 03:40 33.50248 -117.05654 25861 ft 439 kts 91°
2026-04-20 03:40 33.50198 -117.02016 26080 ft 440 kts 91°
2026-04-20 03:40 33.50145 -116.98346 26297 ft 442 kts 91°
2026-04-20 03:40 33.50092 -116.94701 26511 ft 443 kts 91°
2026-04-20 03:41 33.50037 -116.90984 26728 ft 444 kts 91°
2026-04-20 03:41 33.49981 -116.87309 26937 ft 445 kts 91°
2026-04-20 03:41 33.49924 -116.83600 27148 ft 447 kts 91°
2026-04-20 03:41 33.49865 -116.79882 27356 ft 448 kts 91°
2026-04-20 03:42 33.49806 -116.76172 27553 ft 449 kts 91°
2026-04-20 03:42 33.49744 -116.72421 27741 ft 451 kts 91°
2026-04-20 03:42 33.49682 -116.68680 27931 ft 452 kts 91°
2026-04-20 03:42 33.49618 -116.64920 28123 ft 453 kts 91°
2026-04-20 03:43 33.49554 -116.61163 28314 ft 454 kts 91°
2026-04-20 03:43 33.49488 -116.57400 28486 ft 456 kts 91°
2026-04-20 03:43 33.49419 -116.53556 28630 ft 458 kts 92°
2026-04-20 03:43 33.49350 -116.49734 28758 ft 461 kts 92°
2026-04-20 03:44 33.49279 -116.45911 28888 ft 463 kts 92°
2026-04-20 03:44 33.49207 -116.42045 29031 ft 465 kts 92°
2026-04-20 03:44 33.49153 -116.38183 29205 ft 465 kts 92°
2026-04-20 03:44 33.49097 -116.34312 29410 ft 465 kts 92°
2026-04-20 03:45 33.49039 -116.30458 29636 ft 464 kts 92°
2026-04-20 03:45 33.48982 -116.26640 29870 ft 464 kts 92°
2026-04-20 03:45 33.48922 -116.22797 30083 ft 464 kts 92°
2026-04-20 03:45 33.48860 -116.18900 30275 ft 465 kts 93°
2026-04-20 03:46 33.48798 -116.15048 30444 ft 466 kts 93°
2026-04-20 03:46 33.48734 -116.11179 30591 ft 467 kts 93°
2026-04-20 03:46 33.48673 -116.07297 30741 ft 469 kts 91°
2026-04-20 03:46 33.48916 -116.03428 30881 ft 472 kts 82°
2026-04-20 03:47 33.49655 -115.99601 31028 ft 475 kts 73°
2026-04-20 03:47 33.50795 -115.95843 31175 ft 476 kts 71°
2026-04-20 03:47 33.51899 -115.92158 31320 ft 477 kts 72°
2026-04-20 03:47 33.53001 -115.88412 31462 ft 477 kts 72°
2026-04-20 03:48 33.54101 -115.84653 31601 ft 478 kts 72°
2026-04-20 03:48 33.55197 -115.80895 31737 ft 479 kts 72°
2026-04-20 03:48 33.56292 -115.77136 31869 ft 480 kts 72°
2026-04-20 03:48 33.57390 -115.73363 31999 ft 480 kts 72°
2026-04-20 03:49 33.58482 -115.69603 32119 ft 481 kts 72°
2026-04-20 03:49 33.59586 -115.65796 32225 ft 482 kts 72°
2026-04-20 03:49 33.60668 -115.62029 32339 ft 479 kts 74°
2026-04-20 03:49 33.61387 -115.58193 32634 ft 462 kts 84°
2026-04-20 03:50 33.61612 -115.54398 32834 ft 460 kts 91°
2026-04-20 03:50 33.61571 -115.50516 32875 ft 467 kts 93°
2026-04-20 03:50 33.61399 -115.42667 32944 ft 480 kts 93°
2026-04-20 03:51 33.61203 -115.34631 32959 ft 481 kts 94°
2026-04-20 03:51 33.61001 -115.26659 32936 ft 479 kts 94°
2026-04-20 03:52 33.60797 -115.18767 32909 ft 467 kts 94°
2026-04-20 03:52 33.60590 -115.10988 32898 ft 466 kts 94°
2026-04-20 03:53 33.60379 -115.03222 32885 ft 466 kts 94°
2026-04-20 03:53 33.60164 -114.95471 32871 ft 466 kts 94°
2026-04-20 03:54 33.59944 -114.87729 32858 ft 466 kts 94°
2026-04-20 03:54 33.59720 -114.80019 32848 ft 465 kts 94°
2026-04-20 03:55 33.58872 -114.72356 32848 ft 462 kts 104°
2026-04-20 03:55 33.57424 -114.64881 32840 ft 462 kts 104°
2026-04-20 03:56 33.55975 -114.57430 32841 ft 461 kts 104°
2026-04-20 03:56 33.54537 -114.50063 32793 ft 436 kts 105°
2026-04-20 03:57 33.53849 -114.46549 32459 ft 445 kts 105°
2026-04-20 03:57 33.53130 -114.42886 32000 ft 455 kts 104°
2026-04-20 03:57 33.52405 -114.39192 31482 ft 454 kts 104°
2026-04-20 03:57 33.51686 -114.35531 30889 ft 449 kts 104°
2026-04-20 03:58 33.50978 -114.31937 30268 ft 442 kts 105°
2026-04-20 03:58 33.50277 -114.28388 29554 ft 436 kts 105°
2026-04-20 03:58 33.49584 -114.24880 28866 ft 432 kts 105°
2026-04-20 03:58 33.48894 -114.21395 28176 ft 429 kts 105°
2026-04-20 03:59 33.48215 -114.17968 27483 ft 426 kts 105°
2026-04-20 03:59 33.47533 -114.14537 26751 ft 421 kts 105°
2026-04-20 03:59 33.46858 -114.11140 26178 ft 411 kts 105°
2026-04-20 03:59 33.46222 -114.07849 25830 ft 409 kts 102°
2026-04-20 04:00 33.45864 -114.04469 25502 ft 411 kts 95°
2026-04-20 04:00 33.45864 -114.01056 25248 ft 412 kts 87°
2026-04-20 04:00 33.46212 -113.97671 25008 ft 411 kts 83°
2026-04-20 04:00 33.46109 -113.94296 24876 ft 405 kts 107°
2026-04-20 04:01 33.44885 -113.91296 24899 ft 402 kts 130°
2026-04-20 04:01 33.42988 -113.88860 24929 ft 403 kts 133°
2026-04-20 04:01 33.40876 -113.86729 24915 ft 399 kts 153°
2026-04-20 04:01 33.38336 -113.85402 24913 ft 399 kts 152°
2026-04-20 04:02 33.36243 -113.83306 24891 ft 402 kts 129°
2026-04-20 04:02 33.34962 -113.80330 24911 ft 405 kts 109°
2026-04-20 04:02 33.34164 -113.77097 24915 ft 406 kts 107°
2026-04-20 04:02 33.33396 -113.73870 24825 ft 408 kts 107°
2026-04-20 04:03 33.32866 -113.70509 24372 ft 408 kts 91°
2026-04-20 04:03 33.33202 -113.67185 23987 ft 404 kts 86°
2026-04-20 04:03 33.33260 -113.63869 23577 ft 399 kts 93°
2026-04-20 04:03 33.33065 -113.60590 23350 ft 393 kts 96°
2026-04-20 04:04 33.32856 -113.57341 23002 ft 394 kts 96°
2026-04-20 04:04 33.32653 -113.54070 22666 ft 392 kts 96°
2026-04-20 04:04 33.32458 -113.50889 22332 ft 380 kts 96°
2026-04-20 04:04 33.32269 -113.47819 21979 ft 363 kts 96°
2026-04-20 04:05 33.32088 -113.44890 21642 ft 348 kts 96°
2026-04-20 04:05 33.31913 -113.42065 21329 ft 338 kts 96°
2026-04-20 04:05 33.31737 -113.39251 21034 ft 338 kts 96°
2026-04-20 04:05 33.31563 -113.36463 20750 ft 340 kts 96°
2026-04-20 04:06 33.31392 -113.33731 20475 ft 339 kts 97°
2026-04-20 04:06 33.31215 -113.30910 20255 ft 339 kts 97°
2026-04-20 04:06 33.31031 -113.28015 20069 ft 360 kts 96°
2026-04-20 04:06 33.30843 -113.25046 19866 ft 364 kts 96°
2026-04-20 04:07 33.30666 -113.22267 19669 ft 363 kts 96°
2026-04-20 04:07 33.30475 -113.19264 19458 ft 360 kts 96°
2026-04-20 04:07 33.30285 -113.16288 19248 ft 359 kts 96°
2026-04-20 04:07 33.30095 -113.13339 19040 ft 357 kts 96°
2026-04-20 04:08 33.29905 -113.10395 18833 ft 356 kts 96°
2026-04-20 04:08 33.29713 -113.07422 18623 ft 355 kts 96°
2026-04-20 04:08 33.29523 -113.04500 18416 ft 353 kts 96°
2026-04-20 04:08 33.29334 -113.01608 18211 ft 352 kts 96°
2026-04-20 04:09 33.29143 -112.98692 18004 ft 351 kts 96°
2026-04-20 04:09 33.28953 -112.95798 17798 ft 349 kts 96°
2026-04-20 04:09 33.28763 -112.92915 17593 ft 348 kts 96°
2026-04-20 04:09 33.28574 -112.90067 17390 ft 347 kts 96°
2026-04-20 04:10 33.28383 -112.87183 17184 ft 346 kts 96°
2026-04-20 04:10 33.28192 -112.84330 16980 ft 345 kts 96°
2026-04-20 04:10 33.28119 -112.81505 16773 ft 345 kts 87°
2026-04-20 04:10 33.28383 -112.78618 16580 ft 345 kts 85°
2026-04-20 04:11 33.28648 -112.75825 16337 ft 336 kts 85°
2026-04-20 04:11 33.28896 -112.73208 16071 ft 320 kts 85°
2026-04-20 04:11 33.29140 -112.70616 15795 ft 307 kts 85°
2026-04-20 04:11 33.29374 -112.68119 15535 ft 303 kts 85°
2026-04-20 04:12 33.29607 -112.65624 15284 ft 305 kts 85°
2026-04-20 04:12 33.29843 -112.63103 15030 ft 306 kts 85°
2026-04-20 04:12 33.30079 -112.60568 14774 ft 305 kts 85°
2026-04-20 04:12 33.30315 -112.58029 14514 ft 304 kts 85°
2026-04-20 04:13 33.30541 -112.55566 14263 ft 303 kts 85°
2026-04-20 04:13 33.30773 -112.53095 14009 ft 302 kts 85°
2026-04-20 04:13 33.31003 -112.50601 13748 ft 301 kts 85°
2026-04-20 04:13 33.31233 -112.48130 13493 ft 300 kts 85°
2026-04-20 04:14 33.31459 -112.45648 13224 ft 299 kts 85°
2026-04-20 04:14 33.31681 -112.43217 12955 ft 298 kts 85°
2026-04-20 04:14 33.31904 -112.40754 12679 ft 297 kts 85°
2026-04-20 04:14 33.32133 -112.38310 12411 ft 296 kts 85°
2026-04-20 04:15 33.32356 -112.35867 12153 ft 295 kts 85°
2026-04-20 04:15 33.32576 -112.33438 11895 ft 294 kts 85°
2026-04-20 04:15 33.32797 -112.31030 11647 ft 293 kts 85°
2026-04-20 04:15 33.33019 -112.28605 11399 ft 292 kts 85°
2026-04-20 04:16 33.33231 -112.26245 11132 ft 282 kts 85°
2026-04-20 04:16 33.33439 -112.23959 10863 ft 272 kts 85°
2026-04-20 04:16 33.33644 -112.21737 10602 ft 269 kts 86°
2026-04-20 04:16 33.33843 -112.19507 10363 ft 270 kts 85°
2026-04-20 04:17 33.34043 -112.17275 10097 ft 271 kts 85°
2026-04-20 04:17 33.34242 -112.15051 9836 ft 270 kts 85°
2026-04-20 04:17 33.34447 -112.12808 9570 ft 270 kts 85°
2026-04-20 04:17 33.34643 -112.10587 9306 ft 268 kts 86°
2026-04-20 04:18 33.34743 -112.08383 9069 ft 266 kts 92°
2026-04-20 04:18 33.34718 -112.06174 8845 ft 267 kts 92°
2026-04-20 04:18 33.34696 -112.03956 8390 ft 266 kts 93°
2026-04-20 04:18 33.34666 -112.01775 7969 ft 263 kts 92°
2026-04-20 04:19 33.34634 -111.99590 7543 ft 261 kts 92°
2026-04-20 04:19 33.34603 -111.97444 7118 ft 259 kts 92°
2026-04-20 04:19 33.34587 -111.95297 6676 ft 253 kts 92°
2026-04-20 04:19 33.34557 -111.93216 6231 ft 245 kts 93°
2026-04-20 04:20 33.34530 -111.91222 5776 ft 240 kts 92°
2026-04-20 04:20 33.34513 -111.89254 5304 ft 233 kts 92°
2026-04-20 04:20 33.34536 -111.87278 4859 ft 233 kts 90°
2026-04-20 04:20 33.34567 -111.85292 4423 ft 235 kts 90°
2026-04-20 04:21 33.34595 -111.83280 3995 ft 235 kts 90°
2026-04-20 04:21 33.34620 -111.81267 3668 ft 230 kts 90°
2026-04-20 04:21 33.34740 -111.79349 3547 ft 228 kts 70°
2026-04-20 04:21 33.35705 -111.77858 3406 ft 228 kts 30°
2026-04-20 04:22 33.37258 -111.77428 3273 ft 229 kts
2026-04-20 04:22 33.38849 -111.77450 3083 ft 229 kts 359°
2026-04-20 04:22 33.40434 -111.77485 3017 ft 227 kts 359°
2026-04-20 04:22 33.42022 -111.77518 3012 ft 227 kts 359°
2026-04-20 04:23 33.43585 -111.77638 2988 ft 217 kts 341°
2026-04-20 04:23 33.44691 -111.78683 3016 ft 200 kts 295°
2026-04-20 04:23 33.44887 -111.80296 3055 ft 199 kts 262°
2026-04-20 04:23 33.44668 -111.81928 3031 ft 201 kts 259°
2026-04-20 04:24 33.44425 -111.83566 3015 ft 198 kts 259°
2026-04-20 04:24 33.44201 -111.85188 3016 ft 197 kts 262°
2026-04-20 04:24 33.44031 -111.86829 3017 ft 197 kts 264°
2026-04-20 04:24 33.43924 -111.88472 3012 ft 198 kts 265°
2026-04-20 04:25 33.43900 -111.90160 2938 ft 198 kts 270°
2026-04-20 04:25 33.43916 -111.91784 2770 ft 184 kts 269°
2026-04-20 04:25 33.43957 -111.93261 2513 ft 163 kts 268°
2026-04-20 04:25 33.43970 -111.94572 2212 ft 149 kts 268°
2026-04-20 04:26 33.43998 -111.95772 1921 ft 136 kts 269°
2026-04-20 04:26 33.44032 -111.96906 1539 ft 133 kts 269°
2026-04-20 04:26 33.44078 -111.98017 1367 ft 134 kts 267°
2026-04-20 04:26 33.44080 -111.99143 1192 ft 131 kts 262°
2026-04-20 04:27 33.44081 -112.00186 1135 ft 103 kts 272°
2026-04-20 04:27 33.44084 -112.00774 1133 ft 39 kts 271°
2026-04-20 04:27 33.44059 -112.01038 1130 ft 20 kts 238°
2026-04-20 04:27 33.44006 -112.01083 1130 ft 5 kts 176°
2026-04-20 04:28 33.43998 -112.01082 1130 ft 0 kts 176°
2026-04-20 04:28 33.43996 -112.01081 1130 ft 1 kts 169°
2026-04-20 04:28 33.43980 -112.01043 1130 ft 9 kts 95°
2026-04-20 04:28 33.43977 -112.00919 1131 ft 18 kts 90°
2026-04-20 04:29 33.43976 -112.00769 1133 ft 17 kts 91°
2026-04-20 04:29 33.43975 -112.00616 1133 ft 18 kts 88°
2026-04-20 04:29 33.43977 -112.00457 1133 ft 19 kts 90°
2026-04-20 04:29 33.43974 -112.00288 1133 ft 20 kts 91°
2026-04-20 04:30 33.43972 -112.00123 1135 ft 18 kts 88°
2026-04-20 04:30 33.43976 -111.99981 1135 ft 13 kts 90°
2026-04-20 04:30 33.43976 -111.99871 1137 ft 12 kts 91°
2026-04-20 04:30 33.43973 -111.99765 1138 ft 13 kts 91°
2026-04-20 04:31 33.43973 -111.99651 1138 ft 14 kts 90°
2026-04-20 04:31 33.43951 -111.99553 1138 ft 6 kts 157°
2026-04-20 04:31 33.43880 -111.99568 1136 ft 15 kts 191°
2026-04-20 04:31 33.43808 -111.99571 1135 ft 8 kts 187°
2026-04-20 04:32 33.43785 -111.99628 1135 ft 3 kts 269°
2026-04-20 04:32 33.43785 -111.99629 1135 ft 0 kts 269°